Find Starlink 31923

NORAD ID: 60600 Int'l Des: 2024-150 Owner: SPXS Country: US Constellation: starlink operational
LEOCIRCULAR

現在のビュー

3D地球を読み込み中...

About Starlink 31923

Starlink 31923 (NORAD 60600) is a starlink constellation satellite (v2 mini) launched Aug 20, 2024 by SPXS of US. It operates in LEO, CIRCULAR orbit with a mass of 730.00 kg.

Starlink 31923について

説明を読み込み中...

次回通過

Passes for default location (London). Set your location on the main map for personalized predictions.

高度履歴

Loading altitude history...

軌道要素

1 60600U 24150T 26175.18188695 .00000031 00000-0 13175-4 0 9996
2 60600 53.1589 172.5330 0001104 81.2903 278.8223 15.30190230104343
Epoch: Jun 24, 2026 • Age: 24 hours

現在のステータス

高度 475.4 km
速度 7.63 km/s
衛星直下点 6.42°N, 159.23°W
打ち上げ日 Aug 20, 2024
運用期間 1.8 years
タイプ internet

技術仕様

分類 Payload
質量 730.00 kg
乾燥質量 700.00 kg
総質量 730.00 kg
長さ 0.30 m
直径 4.10 m
スパン 29.00 m
形状 Box + pan
製造者 SPXS
バスタイプ Starlink V2M
フェーズステータス In Orbit
所有者/国 SPXS/US

Most Searched